Flag Weather past 2 weeks in Bruck an der Leitha, Lower Austria, Austria

Now
42 °F

Overcast.


Feels Like: 39 °F
Forecast: 35 / 42 °F
Wind: 5 mph from Southeast

Location: Wien / Schwechat-Flughafen

Current Time: Nov 23, 2014 at 1:16:03 AM

Latest Report: Nov 23, 2014 at 12:00 AM


Visibility: 6 mi

Pressure: 30.34 "Hg

Humidity: 86%

Dew point: 38 °F

Location of Bruck an der LeithaLocation

Historic Weather in Bruck an der Leitha — Graph

°F

Bruck an der Leitha temperature yesterday

Maximum temperature yesterday: 43 °F (at 11:00 PM)
Minimum temperature yesterday: 39 °F (at 5:00 AM)
Average temperature yesterday: 41 °F

Past Weeks' High & Low Weather Summary

 TemperatureHumidityPressure
High64 °F (Nov 11, 1:00 PM)100% (Nov 9, 2:00 AM)30.34 "Hg (Nov 9, 2:00 AM)
Low39 °F (Nov 22, 5:00 AM)66% (Nov 11, 1:00 PM)29.69 "Hg (Nov 16, 6:00 AM)
Average49 °F88%29.97 "Hg
* Reported Midnight between Nov 7 and Nov 8 — Midnight between Nov 22 and Nov 23, Bruck an der Leitha, Weather by CustomWeather, © 2014

Note: Actual official high and low records may vary slightly from our data, if they occured in-between our weather recording intervals... More about our weather records

Advertising

Bruck an der Leitha weather history for previous 24 hours

 ConditionsComfort  
Time TempWeatherWind HumidityBarometerVisibility
12:00 AM
Nov 23
42 °FOvercast.5 mph86%30.34 "Hg6 mi
11:00 PM
Nov 22
43 °FOvercast.6 mph86%30.34 "Hg6 mi
10:00 PM42 °FOvercast.5 mph88%30.34 "Hg5 mi
9:00 PM42 °FOvercast.5 mph89%30.34 "Hg5 mi
8:00 PM42 °FOvercast.3 mph90%30.34 "Hg5 mi
7:00 PM42 °FLow clouds.N/A92%30.34 "Hg4 mi
6:00 PM42 °FOvercast.N/A92%30.34 "Hg4 mi
5:00 PM42 °FOvercast.N/A91%30.33 "Hg4 mi
4:00 PM42 °FOvercast.N/A89%30.32 "Hg4 mi
3:00 PM42 °FLow clouds.N/A89%30.32 "Hg4 mi
2:00 PM42 °FOvercast.N/A88%30.32 "Hg4 mi
1:00 PM41 °FLow clouds.N/A88%30.32 "Hg4 mi
12:00 PM41 °FLow clouds.5 mph90%30.33 "Hg4 mi
11:00 AM40 °FLow clouds.3 mph89%30.34 "Hg4 mi
10:00 AM40 °FLow clouds.3 mph90%30.33 "Hg4 mi
9:00 AM40 °FLow clouds.N/A89%30.32 "Hg6 mi
8:00 AM40 °FOvercast.N/A90%30.30 "Hg6 mi
7:00 AM40 °FOvercast.N/A91%30.29 "Hg6 mi
6:00 AM39 °FOvercast.N/A95%30.28 "Hg6 mi
5:00 AM39 °FOvercast.N/A93%30.28 "Hg6 mi
4:00 AM40 °FOvercast.N/A92%30.29 "Hg7 mi
3:00 AM40 °FOvercast.N/A89%30.29 "Hg7 mi
2:00 AM40 °FOvercast.N/A86%30.29 "Hg9 mi
1:00 AM41 °FOvercast.N/A82%30.30 "Hg9 mi
Weather by CustomWeather, © 2014

See weather overviewHow to use our weather pages